This is the latest recevied weather packets stored in our database for station/object DL9NEE-10. If no packets are shown the sender has not sent any weather packets the latest 10 day(s).
| Time | Temp. | Humidity | Pressure | Rain* | Wind** | Luminosity | Snow |
|---|---|---|---|---|---|---|---|
| 1778115297 | 12.78° C | 74% | 1011.1 hPa | - | - | - | - |
| 1778114396 | 12.78° C | 74% | 1011.2 hPa | - | - | - | - |
| 1778113496 | 13.33° C | 74% | 1011.2 hPa | - | - | - | - |
| 1778112596 | 13.33° C | 74% | 1011.1 hPa | - | - | - | - |
| 1778111696 | 13.33° C | 74% | 1011.1 hPa | - | - | - | - |
| 1778110796 | 13.33° C | 74% | 1011.2 hPa | - | - | - | - |
| 1778109896 | 13.33° C | 74% | 1011.1 hPa | - | - | - | - |
| 1778108996 | 13.33° C | 74% | 1011.1 hPa | - | - | - | - |
| 1778108095 | 13.33° C | 74% | 1011.1 hPa | - | - | - | - |
| 1778107195 | 13.89° C | 74% | 1010.9 hPa | - | - | - | - |
| 1778106295 | 13.33° C | 74% | 1010.9 hPa | - | - | - | - |
| 1778105394 | 13.89° C | 73% | 1010.7 hPa | - | - | - | - |
| 1778104494 | 13.89° C | 72% | 1010.7 hPa | - | - | - | - |
| 1778103594 | 14.44° C | 72% | 1010.5 hPa | - | - | - | - |
| 1778102694 | 13.89° C | 73% | 1010.5 hPa | - | - | - | - |
| 1778101794 | 13.89° C | 73% | 1010.4 hPa | - | - | - | - |
| 1778100893 | 14.44° C | 72% | 1010.3 hPa | - | - | - | - |
| 1778099993 | 14.44° C | 73% | 1010 hPa | - | - | - | - |
| 1778099093 | 14.44° C | 73% | 1009.8 hPa | - | - | - | - |
| 1778098193 | 15° C | 72% | 1009.7 hPa | - | - | - | - |
| 1778097293 | 15° C | 72% | 1009.5 hPa | - | - | - | - |
| 1778096393 | 15° C | 73% | 1009.5 hPa | - | - | - | - |
| 1778095493 | 15° C | 72% | 1009.5 hPa | - | - | - | - |
| 1778094593 | 15° C | 72% | 1009.5 hPa | - | - | - | - |
| 1778093692 | 15° C | 72% | 1008.9 hPa | - | - | - | - |
* Rain since midnight (hover to see other rain measurements)
** Current wind speed in m/s (hover to see current wind gust speed)